Time,TemperatureF,DewpointF,PressureIn,WindDirection,WindDirectionDegrees,WindSpeedMPH,WindSpeedGustMPH,Humidity,HourlyPrecipIn,Conditions,Clouds,dailyrainin,SoftwareType,DateUTC
2013-09-30 00:00:00,54.8,50.4,30.08,North,32767,-999.0,0.0,85,0.00,,,0.00,Wunderground v.1.15,2013-09-30 04:00:00,
2013-09-30 00:05:00,54.8,50.4,30.08,North,32767,-999.0,0.0,85,0.00,,,0.00,Wunderground v.1.15,2013-09-30 04:05:00,
2013-09-30 00:10:00,54.6,50.5,30.07,North,32767,-999.0,0.0,86,0.00,,,0.00,Wunderground v.1.15,2013-09-30 04:10:00,
2013-09-30 00:15:00,54.3,50.5,30.08,North,32767,-999.0,0.0,87,0.00,,,0.00,Wunderground v.1.15,2013-09-30 04:15:00,
2013-09-30 00:20:00,54.0,49.9,30.08,North,32767,-999.0,0.0,86,0.00,,,0.00,Wunderground v.1.15,2013-09-30 04:20:00,
2013-09-30 00:25:00,53.8,50.0,30.07,North,32767,-999.0,0.0,87,0.00,,,0.00,Wunderground v.1.15,2013-09-30 04:25:00,
2013-09-30 00:30:00,53.6,49.8,30.07,North,32767,-999.0,0.0,87,0.00,,,0.00,Wunderground v.1.15,2013-09-30 04:30:00,
2013-09-30 00:40:00,53.5,49.7,30.07,North,32767,-999.0,0.0,87,0.00,,,0.00,Wunderground v.1.15,2013-09-30 04:40:00,
2013-09-30 00:45:00,53.5,49.7,30.07,North,32767,-999.0,0.0,87,0.00,,,0.00,Wunderground v.1.15,2013-09-30 04:45:00,
2013-09-30 00:50:00,53.5,49.7,30.07,North,32767,-999.0,0.0,87,0.00,,,0.00,Wunderground v.1.15,2013-09-30 04:50:00,
2013-09-30 01:00:00,53.6,50.7,30.07,North,32767,-999.0,0.0,90,0.00,,,0.00,Wunderground v.1.15,2013-09-30 05:00:00,
2013-09-30 01:09:00,53.7,50.8,30.07,North,32767,-999.0,0.0,90,0.00,,,0.00,Wunderground v.1.15,2013-09-30 05:09:00,
2013-09-30 01:20:00,53.8,50.9,30.07,North,32767,-999.0,0.0,90,0.00,,,0.00,Wunderground v.1.15,2013-09-30 05:20:00,
2013-09-30 01:25:00,53.7,50.8,30.07,North,32767,-999.0,0.0,90,0.00,,,0.00,Wunderground v.1.15,2013-09-30 05:25:00,
2013-09-30 01:30:00,53.6,51.0,30.07,North,32767,-999.0,0.0,91,0.00,,,0.00,Wunderground v.1.15,2013-09-30 05:30:00,
2013-09-30 01:35:00,53.5,50.9,30.08,North,32767,-999.0,0.0,91,0.00,,,0.00,Wunderground v.1.15,2013-09-30 05:35:00,
2013-09-30 01:45:00,53.3,50.7,30.07,North,32767,-999.0,0.0,91,0.00,,,0.00,Wunderground v.1.15,2013-09-30 05:45:00,
2013-09-30 01:50:00,53.2,50.6,30.07,North,32767,-999.0,0.0,91,0.00,,,0.00,Wunderground v.1.15,2013-09-30 05:50:00,
2013-09-30 01:55:00,53.3,50.4,30.07,North,32767,-999.0,0.0,90,0.00,,,0.00,Wunderground v.1.15,2013-09-30 05:55:00,
2013-09-30 02:00:00,53.3,50.1,30.07,North,32767,-999.0,0.0,89,0.00,,,0.00,Wunderground v.1.15,2013-09-30 06:00:00,
2013-09-30 02:10:00,53.2,49.7,30.07,North,32767,-999.0,0.0,88,0.00,,,0.00,Wunderground v.1.15,2013-09-30 06:10:00,
2013-09-30 02:20:00,53.5,49.7,30.07,North,32767,-999.0,0.0,87,0.00,,,0.00,Wunderground v.1.15,2013-09-30 06:20:00,
2013-09-30 02:25:00,53.5,49.4,30.06,North,32767,-999.0,0.0,86,0.00,,,0.00,Wunderground v.1.15,2013-09-30 06:25:00,
2013-09-30 02:34:00,53.4,49.0,30.06,North,32767,-999.0,0.0,85,0.00,,,0.00,Wunderground v.1.15,2013-09-30 06:34:00,
2013-09-30 02:39:00,53.4,49.0,30.06,North,32767,-999.0,0.0,85,0.00,,,0.00,Wunderground v.1.15,2013-09-30 06:39:00,
2013-09-30 02:44:00,53.7,49.0,30.06,North,32767,-999.0,0.0,84,0.00,,,0.00,Wunderground v.1.15,2013-09-30 06:44:00,
2013-09-30 02:50:00,53.8,49.1,30.06,North,32767,-999.0,0.0,84,0.00,,,0.00,Wunderground v.1.15,2013-09-30 06:50:00,
2013-09-30 02:55:00,53.9,49.2,30.06,North,32767,-999.0,0.0,84,0.00,,,0.00,Wunderground v.1.15,2013-09-30 06:55:00,
2013-09-30 03:00:00,53.8,49.1,30.06,North,32767,-999.0,0.0,84,0.00,,,0.00,Wunderground v.1.15,2013-09-30 07:00:00,
2013-09-30 03:10:00,53.7,48.7,30.06,North,32767,-999.0,0.0,83,0.00,,,0.00,Wunderground v.1.15,2013-09-30 07:10:00,
2013-09-30 03:15:00,53.8,49.1,30.05,North,32767,-999.0,0.0,84,0.00,,,0.00,Wunderground v.1.15,2013-09-30 07:15:00,
2013-09-30 03:25:00,53.6,48.6,30.05,North,32767,-999.0,0.0,83,0.00,,,0.00,Wunderground v.1.15,2013-09-30 07:25:00,
2013-09-30 03:34:00,53.5,48.5,30.05,North,32767,-999.0,0.0,83,0.00,,,0.00,Wunderground v.1.15,2013-09-30 07:34:00,
2013-09-30 03:39:00,53.5,48.5,30.05,North,32767,-999.0,0.0,83,0.00,,,0.00,Wunderground v.1.15,2013-09-30 07:39:00,
2013-09-30 03:44:00,53.3,48.3,30.05,North,32767,-999.0,0.0,83,0.00,,,0.00,Wunderground v.1.15,2013-09-30 07:44:00,
2013-09-30 03:49:00,53.2,48.2,30.05,North,32767,-999.0,0.0,83,0.00,,,0.00,Wunderground v.1.15,2013-09-30 07:49:00,
2013-09-30 03:55:00,53.1,48.1,30.05,North,32767,-999.0,0.0,83,0.00,,,0.00,Wunderground v.1.15,2013-09-30 07:55:00,
2013-09-30 04:00:00,53.1,48.1,30.05,North,32767,-999.0,0.0,83,0.00,,,0.00,Wunderground v.1.15,2013-09-30 08:00:00,
2013-09-30 04:10:00,53.5,48.5,30.05,North,32767,-999.0,0.0,83,0.00,,,0.00,Wunderground v.1.15,2013-09-30 08:10:00,
2013-09-30 04:20:00,53.5,48.5,30.05,North,32767,-999.0,0.0,83,0.00,,,0.00,Wunderground v.1.15,2013-09-30 08:20:00,
2013-09-30 04:29:00,53.7,48.3,30.05,North,32767,-999.0,0.0,82,0.00,,,0.00,Wunderground v.1.15,2013-09-30 08:29:00,
2013-09-30 04:34:00,53.7,48.3,30.05,North,32767,-999.0,0.0,82,0.00,,,0.00,Wunderground v.1.15,2013-09-30 08:34:00,
2013-09-30 04:40:00,53.6,48.2,30.05,North,32767,-999.0,0.0,82,0.00,,,0.00,Wunderground v.1.15,2013-09-30 08:40:00,
2013-09-30 04:49:00,53.5,48.5,30.05,North,32767,-999.0,0.0,83,0.00,,,0.00,Wunderground v.1.15,2013-09-30 08:49:00,
2013-09-30 04:55:00,53.4,48.4,30.05,North,32767,-999.0,0.0,83,0.00,,,0.00,Wunderground v.1.15,2013-09-30 08:55:00,
2013-09-30 05:00:00,53.4,48.0,30.05,North,32767,-999.0,0.0,82,0.00,,,0.00,Wunderground v.1.15,2013-09-30 09:00:00,
2013-09-30 05:10:00,53.7,48.0,30.06,North,32767,-999.0,0.0,81,0.00,,,0.00,Wunderground v.1.15,2013-09-30 09:10:00,
2013-09-30 05:15:00,53.7,47.7,30.06,North,32767,-999.0,0.0,80,0.00,,,0.00,Wunderground v.1.15,2013-09-30 09:15:00,
2013-09-30 05:20:00,53.6,47.6,30.06,North,32767,-999.0,0.0,80,0.00,,,0.00,Wunderground v.1.15,2013-09-30 09:20:00,
2013-09-30 05:30:00,53.4,47.4,30.06,North,32767,-999.0,0.0,80,0.00,,,0.00,Wunderground v.1.15,2013-09-30 09:30:00,
2013-09-30 05:35:00,53.4,47.7,30.06,North,32767,-999.0,0.0,81,0.00,,,0.00,Wunderground v.1.15,2013-09-30 09:35:00,
2013-09-30 05:45:00,53.4,48.0,30.06,North,32767,-999.0,0.0,82,0.00,,,0.00,Wunderground v.1.15,2013-09-30 09:45:00,
2013-09-30 05:50:00,53.5,48.1,30.06,North,32767,-999.0,0.0,82,0.00,,,0.00,Wunderground v.1.15,2013-09-30 09:50:00,
2013-09-30 06:00:00,53.5,48.5,30.06,North,32767,-999.0,0.0,83,0.00,,,0.00,Wunderground v.1.15,2013-09-30 10:00:00,
2013-09-30 06:10:00,53.3,48.6,30.06,North,32767,-999.0,0.0,84,0.00,,,0.00,Wunderground v.1.15,2013-09-30 10:10:00,
2013-09-30 06:20:00,52.8,48.4,30.06,North,32767,-999.0,0.0,85,0.00,,,0.00,Wunderground v.1.15,2013-09-30 10:20:00,
2013-09-30 06:30:00,52.7,49.5,30.06,North,32767,-999.0,0.0,89,0.00,,,0.00,Wunderground v.1.15,2013-09-30 10:30:00,
2013-09-30 06:34:00,52.7,49.8,30.07,North,32767,-999.0,0.0,90,0.00,,,0.00,Wunderground v.1.15,2013-09-30 10:34:00,
2013-09-30 06:44:00,52.7,50.4,30.06,North,32767,-999.0,0.0,92,0.00,,,0.00,Wunderground v.1.15,2013-09-30 10:44:00,
2013-09-30 06:50:00,52.7,50.4,30.07,North,32767,-999.0,0.0,92,0.00,,,0.00,Wunderground v.1.15,2013-09-30 10:50:00,
2013-09-30 07:00:00,52.7,50.7,30.07,North,32767,-999.0,0.0,93,0.00,,,0.00,Wunderground v.1.15,2013-09-30 11:00:00,
2013-09-30 07:10:00,52.8,50.8,30.07,North,32767,-999.0,0.0,93,0.00,,,0.00,Wunderground v.1.15,2013-09-30 11:10:00,
2013-09-30 07:20:00,52.8,50.8,30.07,North,32767,-999.0,0.0,93,0.00,,,0.00,Wunderground v.1.15,2013-09-30 11:20:00,
2013-09-30 07:25:00,52.8,50.8,30.07,North,32767,-999.0,0.0,93,0.00,,,0.00,Wunderground v.1.15,2013-09-30 11:25:00,
2013-09-30 07:34:00,52.9,50.9,30.07,North,32767,-999.0,0.0,93,0.00,,,0.00,Wunderground v.1.15,2013-09-30 11:34:00,
2013-09-30 07:40:00,53.0,51.0,30.08,North,32767,-999.0,0.0,93,0.00,,,0.00,Wunderground v.1.15,2013-09-30 11:40:00,
2013-09-30 07:50:00,53.0,51.0,30.07,North,32767,-999.0,0.0,93,0.00,,,0.00,Wunderground v.1.15,2013-09-30 11:50:00,
2013-09-30 08:00:00,53.1,51.1,30.07,North,32767,-999.0,0.0,93,0.00,,,0.00,Wunderground v.1.15,2013-09-30 12:00:00,
2013-09-30 08:10:00,53.2,51.2,30.07,North,32767,-999.0,0.0,93,0.00,,,0.00,Wunderground v.1.15,2013-09-30 12:10:00,
2013-09-30 08:19:00,53.4,51.1,30.07,SSW,202,0.0,0.0,92,0.00,,,0.00,Wunderground v.1.15,2013-09-30 12:19:00,
2013-09-30 08:34:00,53.8,51.2,30.07,SSW,202,0.0,0.0,91,0.00,,,0.00,Wunderground v.1.15,2013-09-30 12:34:00,
2013-09-30 08:45:00,54.1,51.5,30.07,SSW,202,0.0,0.0,91,0.00,,,0.00,Wunderground v.1.15,2013-09-30 12:45:00,
2013-09-30 08:55:00,54.2,51.3,30.07,SSW,202,0.0,0.0,90,0.00,,,0.00,Wunderground v.1.15,2013-09-30 12:55:00,
2013-09-30 09:00:00,54.3,51.4,30.07,SSW,202,0.0,0.0,90,0.00,,,0.00,Wunderground v.1.15,2013-09-30 13:00:00,
2013-09-30 09:09:00,54.5,51.6,30.07,SSW,196,0.0,0.0,90,0.00,,,0.00,Wunderground v.1.15,2013-09-30 13:09:00,
2013-09-30 09:15:00,54.8,51.6,30.07,SSW,196,0.0,0.0,89,0.00,,,0.00,Wunderground v.1.15,2013-09-30 13:15:00,
2013-09-30 09:25:00,55.7,52.2,30.07,SSW,196,0.0,0.0,88,0.00,,,0.00,Wunderground v.1.15,2013-09-30 13:25:00,
2013-09-30 09:35:00,56.5,52.4,30.07,SE,142,0.0,0.0,86,0.00,,,0.00,Wunderground v.1.15,2013-09-30 13:35:00,
2013-09-30 09:39:00,56.8,52.3,30.07,SE,142,0.0,0.0,85,0.00,,,0.00,Wunderground v.1.15,2013-09-30 13:39:00,
2013-09-30 09:49:00,57.8,53.6,30.07,SE,142,0.0,0.0,86,0.00,,,0.00,Wunderground v.1.15,2013-09-30 13:49:00,
2013-09-30 09:55:00,58.3,53.5,30.07,SE,142,0.0,0.0,84,0.00,,,0.00,Wunderground v.1.15,2013-09-30 13:55:00,
2013-09-30 10:00:00,58.6,53.5,30.07,SE,139,0.0,0.0,83,0.00,,,0.00,Wunderground v.1.15,2013-09-30 14:00:00,
2013-09-30 10:10:00,58.9,53.1,30.07,NE,34,0.0,0.0,81,0.00,,,0.00,Wunderground v.1.15,2013-09-30 14:10:00,
2013-09-30 10:15:00,58.9,52.7,30.07,NE,34,0.0,0.0,80,0.00,,,0.00,Wunderground v.1.15,2013-09-30 14:15:00,
2013-09-30 10:25:00,59.7,53.5,30.06,NE,34,0.0,0.0,80,0.00,,,0.00,Wunderground v.1.15,2013-09-30 14:25:00,
2013-09-30 10:35:00,60.9,54.0,30.06,East,86,0.0,0.0,78,0.00,,,0.00,Wunderground v.1.15,2013-09-30 14:35:00,
2013-09-30 10:44:00,61.8,54.5,30.06,NE,34,0.0,0.0,77,0.00,,,0.00,Wunderground v.1.15,2013-09-30 14:44:00,
2013-09-30 10:55:00,62.4,54.7,30.06,ENE,73,0.0,0.0,76,0.00,,,0.00,Wunderground v.1.15,2013-09-30 14:55:00,
2013-09-30 11:00:00,62.7,54.3,30.06,ENE,78,0.0,0.0,74,0.00,,,0.00,Wunderground v.1.15,2013-09-30 15:00:00,
2013-09-30 11:10:00,63.1,55.4,30.05,NE,34,0.0,0.0,76,0.00,,,0.00,Wunderground v.1.15,2013-09-30 15:10:00,
2013-09-30 11:15:00,63.7,56.0,30.05,ENE,63,0.0,0.0,76,0.00,,,0.00,Wunderground v.1.15,2013-09-30 15:15:00,
2013-09-30 11:20:00,63.7,56.4,30.05,NE,53,0.0,0.0,77,0.00,,,0.00,Wunderground v.1.15,2013-09-30 15:20:00,
2013-09-30 11:25:00,63.9,55.4,30.05,ENE,65,0.0,0.0,74,0.00,,,0.00,Wunderground v.1.15,2013-09-30 15:25:00,
2013-09-30 11:30:00,63.9,55.1,30.05,SE,142,0.0,0.0,73,0.00,,,0.00,Wunderground v.1.15,2013-09-30 15:30:00,
2013-09-30 11:39:00,64.5,55.3,30.05,ESE,109,0.0,0.0,72,0.00,,,0.00,Wunderground v.1.15,2013-09-30 15:39:00,
2013-09-30 11:44:00,64.8,55.6,30.05,ENE,76,0.0,0.0,72,0.00,,,0.00,Wunderground v.1.15,2013-09-30 15:44:00,
2013-09-30 11:54:00,65.7,54.8,30.04,ENE,63,0.0,0.0,68,0.00,,,0.00,Wunderground v.1.15,2013-09-30 15:54:00,
2013-09-30 12:00:00,65.8,54.9,30.04,SE,140,0.0,0.0,68,0.00,,,0.00,Wunderground v.1.15,2013-09-30 16:00:00,
2013-09-30 12:10:00,66.1,55.6,30.04,NE,45,0.0,0.0,69,0.00,,,0.00,Wunderground v.1.15,2013-09-30 16:10:00,
2013-09-30 12:15:00,66.1,54.0,30.04,East,92,0.0,0.0,65,0.00,,,0.00,Wunderground v.1.15,2013-09-30 16:15:00,
2013-09-30 12:25:00,66.9,55.6,30.04,North,355,0.0,0.0,67,0.00,,,0.00,Wunderground v.1.15,2013-09-30 16:25:00,
2013-09-30 12:35:00,67.4,53.9,30.03,ENE,76,0.0,0.0,62,0.00,,,0.00,Wunderground v.1.15,2013-09-30 16:35:00,
2013-09-30 12:45:00,67.6,53.2,30.03,SSE,164,0.0,0.0,60,0.00,,,0.00,Wunderground v.1.15,2013-09-30 16:45:00,
2013-09-30 12:55:00,68.5,55.0,30.02,ESE,119,0.0,0.0,62,0.00,,,0.00,Wunderground v.1.15,2013-09-30 16:55:00,
2013-09-30 13:00:00,68.7,54.3,30.02,NE,52,0.0,0.0,60,0.00,,,0.00,Wunderground v.1.15,2013-09-30 17:00:00,
2013-09-30 13:10:00,68.7,54.3,30.02,North,360,0.0,0.0,60,0.00,,,0.00,Wunderground v.1.15,2013-09-30 17:10:00,
2013-09-30 13:20:00,69.1,52.7,30.01,NE,36,0.0,0.0,56,0.00,,,0.00,Wunderground v.1.15,2013-09-30 17:20:00,
2013-09-30 13:29:00,69.4,54.0,30.01,ENE,65,0.0,0.0,58,0.00,,,0.00,Wunderground v.1.15,2013-09-30 17:29:00,
2013-09-30 13:34:00,69.4,52.0,30.01,West,267,0.0,0.0,54,0.00,,,0.00,Wunderground v.1.15,2013-09-30 17:34:00,
2013-09-30 13:39:00,69.7,53.3,30.01,ENE,74,0.0,0.0,56,0.00,,,0.00,Wunderground v.1.15,2013-09-30 17:39:00,
2013-09-30 13:45:00,70.4,55.4,30.01,NE,44,0.0,0.0,59,0.00,,,0.00,Wunderground v.1.15,2013-09-30 17:45:00,
2013-09-30 13:50:00,69.9,54.0,30.01,ENE,68,0.0,0.0,57,0.00,,,0.00,Wunderground v.1.15,2013-09-30 17:50:00,
2013-09-30 14:00:00,69.7,54.3,30.00,NNE,32,0.0,0.0,58,0.00,,,0.00,Wunderground v.1.15,2013-09-30 18:00:00,
2013-09-30 14:10:00,71.0,53.5,30.00,ESE,106,0.0,0.0,54,0.00,,,0.00,Wunderground v.1.15,2013-09-30 18:10:00,
2013-09-30 14:19:00,70.5,53.6,30.00,NE,36,0.0,0.0,55,0.00,,,0.00,Wunderground v.1.15,2013-09-30 18:19:00,
2013-09-30 14:30:00,69.3,52.9,30.00,SSW,194,0.0,0.0,56,0.00,,,0.00,Wunderground v.1.15,2013-09-30 18:30:00,
2013-09-30 14:40:00,68.5,53.1,30.00,South,182,0.0,0.0,58,0.00,,,0.00,Wunderground v.1.15,2013-09-30 18:40:00,
2013-09-30 14:50:00,67.5,52.2,30.00,South,180,0.0,0.0,58,0.00,,,0.00,Wunderground v.1.15,2013-09-30 18:50:00,
2013-09-30 15:00:00,66.4,52.5,30.00,South,180,0.0,0.0,61,0.00,,,0.00,Wunderground v.1.15,2013-09-30 19:00:00,
2013-09-30 15:10:00,66.2,52.3,29.99,South,180,0.0,0.0,61,0.00,,,0.00,Wunderground v.1.15,2013-09-30 19:10:00,
2013-09-30 15:19:00,67.6,53.7,29.99,ENE,73,0.0,0.0,61,0.00,,,0.00,Wunderground v.1.15,2013-09-30 19:19:00,
2013-09-30 15:25:00,68.6,52.8,29.99,East,81,0.0,0.0,57,0.00,,,0.00,Wunderground v.1.15,2013-09-30 19:25:00,
2013-09-30 15:35:00,69.0,52.2,29.99,East,90,0.0,0.0,55,0.00,,,0.00,Wunderground v.1.15,2013-09-30 19:35:00,
2013-09-30 15:45:00,70.2,53.3,29.99,South,183,0.0,0.0,55,0.00,,,0.00,Wunderground v.1.15,2013-09-30 19:45:00,
2013-09-30 15:54:00,71.3,52.8,29.99,SSE,164,0.0,0.0,52,0.00,,,0.00,Wunderground v.1.15,2013-09-30 19:54:00,
2013-09-30 16:00:00,71.7,54.2,29.98,North,360,0.0,0.0,54,0.00,,,0.00,Wunderground v.1.15,2013-09-30 20:00:00,
2013-09-30 16:09:00,71.3,53.8,29.98,South,186,0.0,0.0,54,0.00,,,0.00,Wunderground v.1.15,2013-09-30 20:09:00,
2013-09-30 16:15:00,71.1,52.6,29.98,South,186,0.0,0.0,52,0.00,,,0.00,Wunderground v.1.15,2013-09-30 20:15:00,
2013-09-30 16:25:00,71.0,50.9,29.98,ESE,122,0.0,0.0,49,0.00,,,0.00,Wunderground v.1.15,2013-09-30 20:25:00,
2013-09-30 16:35:00,71.0,52.5,29.98,ESE,122,0.0,0.0,52,0.00,,,0.00,Wunderground v.1.15,2013-09-30 20:35:00,
2013-09-30 16:44:00,71.0,52.5,29.98,SE,127,0.0,0.0,52,0.00,,,0.00,Wunderground v.1.15,2013-09-30 20:44:00,
2013-09-30 16:50:00,70.8,52.8,29.98,SE,127,0.0,0.0,53,0.00,,,0.00,Wunderground v.1.15,2013-09-30 20:50:00,
2013-09-30 17:00:00,70.6,52.6,29.98,SE,127,0.0,0.0,53,0.00,,,0.00,Wunderground v.1.15,2013-09-30 21:00:00,
2013-09-30 17:10:00,69.8,52.9,29.98,SE,127,0.0,0.0,55,0.00,,,0.00,Wunderground v.1.15,2013-09-30 21:10:00,
2013-09-30 17:20:00,68.8,52.9,29.98,SE,127,0.0,0.0,57,0.00,,,0.00,Wunderground v.1.15,2013-09-30 21:20:00,
2013-09-30 17:29:00,67.9,52.6,29.98,SE,127,0.0,0.0,58,0.00,,,0.00,Wunderground v.1.15,2013-09-30 21:29:00,
2013-09-30 17:35:00,67.6,52.8,29.98,SE,127,0.0,0.0,59,0.00,,,0.00,Wunderground v.1.15,2013-09-30 21:35:00,
2013-09-30 17:45:00,67.0,53.1,29.98,SE,127,0.0,0.0,61,0.00,,,0.00,Wunderground v.1.15,2013-09-30 21:45:00,
2013-09-30 17:55:00,66.5,52.6,29.98,SE,127,0.0,0.0,61,0.00,,,0.00,Wunderground v.1.15,2013-09-30 21:55:00,
2013-09-30 18:00:00,66.3,53.3,29.98,SE,127,0.0,0.0,63,0.00,,,0.00,Wunderground v.1.15,2013-09-30 22:00:00,
2013-09-30 18:10:00,65.9,54.6,29.98,SE,127,0.0,0.0,67,0.00,,,0.00,Wunderground v.1.15,2013-09-30 22:10:00,
2013-09-30 18:15:00,65.5,54.2,29.98,North,32767,-999.0,0.0,67,0.00,,,0.00,Wunderground v.1.15,2013-09-30 22:15:00,
2013-09-30 18:24:00,64.9,54.1,29.98,North,32767,-999.0,0.0,68,0.00,,,0.00,Wunderground v.1.15,2013-09-30 22:24:00,
2013-09-30 18:29:00,64.5,53.7,29.98,North,32767,-999.0,0.0,68,0.00,,,0.00,Wunderground v.1.15,2013-09-30 22:29:00,
2013-09-30 18:35:00,64.1,52.9,29.98,North,32767,-999.0,0.0,67,0.00,,,0.00,Wunderground v.1.15,2013-09-30 22:35:00,
2013-09-30 18:45:00,63.4,52.2,29.98,North,32767,-999.0,0.0,67,0.00,,,0.00,Wunderground v.1.15,2013-09-30 22:45:00,
2013-09-30 18:55:00,62.8,52.1,29.98,North,32767,-999.0,0.0,68,0.00,,,0.00,Wunderground v.1.15,2013-09-30 22:55:00,
2013-09-30 19:00:00,62.5,52.2,29.98,North,32767,-999.0,0.0,69,0.00,,,0.00,Wunderground v.1.15,2013-09-30 23:00:00,
2013-09-30 19:10:00,62.0,51.7,29.98,North,32767,-999.0,0.0,69,0.00,,,0.00,Wunderground v.1.15,2013-09-30 23:10:00,
2013-09-30 19:15:00,61.7,51.8,29.98,North,32767,-999.0,0.0,70,0.00,,,0.00,Wunderground v.1.15,2013-09-30 23:15:00,
2013-09-30 19:20:00,61.5,52.0,29.98,North,32767,-999.0,0.0,71,0.00,,,0.00,Wunderground v.1.15,2013-09-30 23:20:00,
2013-09-30 19:25:00,61.2,51.7,29.98,North,32767,-999.0,0.0,71,0.00,,,0.00,Wunderground v.1.15,2013-09-30 23:25:00,
2013-09-30 19:35:00,60.8,51.7,29.99,North,32767,-999.0,0.0,72,0.00,,,0.00,Wunderground v.1.15,2013-09-30 23:35:00,
2013-09-30 19:45:00,60.3,51.6,29.99,North,32767,-999.0,0.0,73,0.00,,,0.00,Wunderground v.1.15,2013-09-30 23:45:00,
2013-09-30 19:54:00,60.2,51.5,29.99,North,32767,-999.0,0.0,73,0.00,,,0.00,Wunderground v.1.15,2013-09-30 23:54:00,
2013-09-30 20:00:00,60.3,51.6,29.99,North,32767,-999.0,0.0,73,0.00,,,0.00,Wunderground v.1.15,2013-10-01 00:00:00,
2013-09-30 20:09:00,60.6,51.9,29.99,North,32767,-999.0,0.0,73,0.00,,,0.00,Wunderground v.1.15,2013-10-01 00:09:00,
2013-09-30 20:20:00,60.7,52.0,29.99,North,32767,-999.0,0.0,73,0.00,,,0.00,Wunderground v.1.15,2013-10-01 00:20:00,
2013-09-30 20:30:00,60.6,51.9,30.00,North,32767,-999.0,0.0,73,0.00,,,0.00,Wunderground v.1.15,2013-10-01 00:30:00,
2013-09-30 20:35:00,60.6,51.9,30.00,North,32767,-999.0,0.0,73,0.00,,,0.00,Wunderground v.1.15,2013-10-01 00:35:00,
2013-09-30 20:44:00,60.5,51.8,30.00,North,32767,-999.0,0.0,73,0.00,,,0.00,Wunderground v.1.15,2013-10-01 00:44:00,
2013-09-30 20:49:00,60.4,51.7,30.00,North,32767,-999.0,0.0,73,0.00,,,0.00,Wunderground v.1.15,2013-10-01 00:49:00,
2013-09-30 20:55:00,60.3,51.6,30.00,North,32767,-999.0,0.0,73,0.00,,,0.00,Wunderground v.1.15,2013-10-01 00:55:00,
2013-09-30 21:00:00,60.3,52.0,30.00,North,32767,-999.0,0.0,74,0.00,,,0.00,Wunderground v.1.15,2013-10-01 01:00:00,
2013-09-30 21:10:00,60.3,52.0,30.00,North,32767,-999.0,0.0,74,0.00,,,0.00,Wunderground v.1.15,2013-10-01 01:10:00,
2013-09-30 21:20:00,60.2,51.9,30.00,North,32767,-999.0,0.0,74,0.00,,,0.00,Wunderground v.1.15,2013-10-01 01:20:00,
2013-09-30 21:25:00,60.2,51.9,30.00,North,32767,-999.0,0.0,74,0.00,,,0.00,Wunderground v.1.15,2013-10-01 01:25:00,
2013-09-30 21:34:00,59.9,52.0,30.00,North,32767,-999.0,0.0,75,0.00,,,0.00,Wunderground v.1.15,2013-10-01 01:34:00,
2013-09-30 21:45:00,59.6,52.0,30.00,North,32767,-999.0,0.0,76,0.00,,,0.00,Wunderground v.1.15,2013-10-01 01:45:00,
2013-09-30 21:55:00,59.4,52.2,30.00,North,32767,-999.0,0.0,77,0.00,,,0.00,Wunderground v.1.15,2013-10-01 01:55:00,
2013-09-30 22:00:00,59.5,52.3,30.00,North,32767,-999.0,0.0,77,0.00,,,0.00,Wunderground v.1.15,2013-10-01 02:00:00,
2013-09-30 22:10:00,59.6,52.4,30.00,North,32767,-999.0,0.0,77,0.00,,,0.00,Wunderground v.1.15,2013-10-01 02:10:00,
2013-09-30 22:15:00,59.5,52.3,30.00,North,32767,-999.0,0.0,77,0.00,,,0.00,Wunderground v.1.15,2013-10-01 02:15:00,
2013-09-30 22:20:00,59.4,52.5,30.00,North,32767,-999.0,0.0,78,0.00,,,0.00,Wunderground v.1.15,2013-10-01 02:20:00,
2013-09-30 22:30:00,59.4,52.5,30.00,North,32767,-999.0,0.0,78,0.00,,,0.00,Wunderground v.1.15,2013-10-01 02:30:00,
2013-09-30 22:39:00,59.3,52.8,30.00,North,32767,-999.0,0.0,79,0.00,,,0.00,Wunderground v.1.15,2013-10-01 02:39:00,
2013-09-30 22:45:00,59.2,52.7,30.00,North,32767,-999.0,0.0,79,0.00,,,0.00,Wunderground v.1.15,2013-10-01 02:45:00,
2013-09-30 22:55:00,59.0,52.5,30.00,North,32767,-999.0,0.0,79,0.00,,,0.00,Wunderground v.1.15,2013-10-01 02:55:00,
2013-09-30 23:00:00,58.9,52.4,30.00,North,32767,-999.0,0.0,79,0.00,,,0.00,Wunderground v.1.15,2013-10-01 03:00:00,
2013-09-30 23:10:00,58.9,52.4,30.00,North,32767,-999.0,0.0,79,0.00,,,0.00,Wunderground v.1.15,2013-10-01 03:10:00,
2013-09-30 23:20:00,59.1,52.6,30.00,North,32767,-999.0,0.0,79,0.00,,,0.00,Wunderground v.1.15,2013-10-01 03:20:00,
2013-09-30 23:25:00,59.1,52.6,30.00,North,32767,-999.0,0.0,79,0.00,,,0.00,Wunderground v.1.15,2013-10-01 03:25:00,
2013-09-30 23:35:00,58.9,52.4,29.99,North,32767,-999.0,0.0,79,0.00,,,0.00,Wunderground v.1.15,2013-10-01 03:35:00,
2013-09-30 23:45:00,58.9,52.7,29.99,North,32767,-999.0,0.0,80,0.00,,,0.00,Wunderground v.1.15,2013-10-01 03:45:00,
2013-09-30 23:55:00,58.9,52.4,29.99,North,32767,-999.0,0.0,79,0.00,,,0.00,Wunderground v.1.15,2013-10-01 03:55:00,